Wind_Speed
6 6 5 5 4 3 3 3 3 2 2 2 2 3 4 4 5 5 5 5 6 6 6 5 5 5 5 4 4 5 5 5 5 6 6 6 6 6 6 6 6 6 7
8 8 7 6 6 5 4 4 4 4 3 3 3 3 3 3 4 4 4 4 5 4 4 4 4 4 4 3 3 3 4 4 4 5 6 6 6 6 6 6 6 6 6
10 10 9 8 7 7 6 5 5 5 4 4 3 3 3 3 3 3 3 3 3 3 3 3 3 3 3 2 2 2 2 3 4 4 5 5 5 5 5 6 5 5 6
11 10 10 9 8 8 7 6 6 6 5 5 4 4 3 3 3 3 3 3 3 3 3 3 3 2 2 2 1 1 1 2 3 4 3 4 4 5 5 5 5 5 6
12 11 11 10 10 9 8 8 7 7 6 5 5 5 5 4 4 4 3 3 3 2 2 2 2 1 1 1 1 1 1 1 1 2 3 3 3 4 4 4 4 5 5
12 12 12 12 11 10 9 9 8 8 7 7 6 6 6 6 5 5 4 4 4 3 3 2 2 2 2 2 2 2 1 1 1 1 1 2 2 3 3 3 4 4 4
13 13 13 13 12 11 10 10 9 9 9 8 7 7 7 7 7 7 6 6 5 5 4 4 4 3 3 3 3 3 2 2 2 1 1 0 1 1 1 2 2 2 3
13 14 14 14 14 13 12 11 10 10 10 9 9 9 9 8 8 8 8 8 7 7 6 6 6 5 5 5 5 4 4 4 3 2 2 2 1 1 0 0 0 1 2
14 15 15 16 16 15 14 13 11 11 11 11 10 10 10 10 10 10 10 9 9 9 8 8 8 8 7 7 6 6 6 6 4 4 4 3 3 2 2 2 2 1 1
15 16 16 17 17 16 15 15 13 12 12 12 12 11 11 11 12 12 11 11 11 11 10 10 10 10 10 9 8 8 8 7 6 6 6 5 5 4 4 4 3 3 3
16 17 17 18 18 17 16 16 15 14 13 13 14 13 13 13 13 13 13 13 13 12 12 12 11 11 11 11 10 10 9 8 8 8 8 7 7 7 6 6 5 5 5
17 18 18 19 19 18 17 17 16 15 14 14 15 14 14 14 12 12 12 13 13 13 12 12 11 12 12 12 12 12 11 11 9 9 10 10 9 9 8 8 8 7 7
18 18 19 18 18 18 18 18 17 17 15 15 14 13 13 13 13 12 12 11 12 12 12 12 11 11 11 12 12 13 13 13 12 11 12 12 12 11 11 10 10 10 9
19 19 19 18 18 18 18 18 18 17 16 14 14 13 13 13 12 10 10 10 11 11 11 12 11 11 11 12 12 13 13 12 13 13 14 13 13 13 13 13 12 12 11
17 18 19 17 17 18 18 19 18 16 16 15 13 12 11 10 11 11 9 8 8 9 10 9 10 10 10 11 10 11 12 12 12 11 14 14 14 14 14 15 14 14 13
19 18 17 17 17 18 18 18 18 17 15 14 13 12 10 10 10 9 8 8 8 8 7 7 7 7 7 8 9 10 11 12 12 12 13 15 15 15 15 15 15 15 15
18 18 18 16 15 16 16 16 16 15 13 12 12 11 10 9 8 8 7 7 7 7 7 6 6 6 6 7 8 9 10 11 12 12 12 13 15 15 15 15 15 16 16
17 18 17 14 14 14 15 15 15 13 13 12 11 10 8 8 7 7 6 6 5 5 6 6 6 6 7 6 6 6 7 8 10 11 11 12 13 14 15 15 16 17 17
16 16 17 15 15 15 15 15 15 14 13 10 9 8 6 6 6 6 6 4 4 4 5 5 5 5 6 6 6 5 6 8 9 10 11 11 12 14 15 16 17 18 18
15 15 15 15 14 15 15 15 14 12 11 10 8 6 5 4 4 4 4 4 4 4 4 4 5 5 5 5 6 6 7 7 8 10 11 11 12 13 14 15 17 18 19
12 13 13 14 14 15 15 14 13 12 10 9 8 6 5 4 3 3 3 2 2 3 2 2 3 3 4 5 6 7 7 8 9 11 12 12 13 13 14 15 16 17 18
11 12 12 12 13 14 14 13 12 11 9 8 8 7 6 4 3 2 1 1 1 1 0 1 2 3 4 5 6 7 8 9 10 11 12 13 13 14 15 15 16 17 17
9 10 10 11 11 12 13 13 12 10 8 8 8 7 6 5 3 2 1 1 1 2 1 2 3 4 5 6 7 8 8 9 10 11 12 12 13 14 16 16 17 18 19
8 9 10 10 10 11 11 11 11 9 8 9 8 7 6 5 4 3 2 1 1 2 3 3 4 5 6 7 8 9 9 10 11 12 12 13 14 15 16 17 18 19 20
7 9 9 10 10 9 10 10 9 9 9 9 9 8 7 6 4 3 2 1 0 2 3 5 6 7 8 8 9 10 11 12 13 13 13 14 15 16 17 18 19 19 20
7 8 9 9 9 10 10 9 9 9 10 9 9 7 7 6 4 3 2 1 2 3 4 6 7 8 9 10 11 11 12 13 14 14 15 15 16 17 18 18 19 20 21
Wind_Direction
251 241 234 234 236 239 244 250 243 226 198 172 154 146 139 132 126 120 116 112 108 107 105 104 105 99 91 82 73 70 70 69 66 64 64 68 72 75 78 79 82 82 88
252 242 238 237 238 239 245 253 250 235 222 204 185 171 160 150 140 133 124 118 117 115 111 110 109 105 98 86 74 69 68 65 63 64 65 66 69 73 78 82 86 85 87
252 242 238 236 235 236 241 245 245 238 229 218 207 197 187 179 167 155 146 135 128 125 123 119 116 115 114 104 93 78 73 68 67 69 66 66 69 72 77 78 87 88 90
247 243 238 234 233 234 237 240 239 240 240 235 226 218 211 207 200 188 177 166 156 147 138 130 123 125 132 127 114 99 86 83 76 70 60 67 71 77 79 82 84 89 91
247 241 239 236 235 233 235 237 238 247 250 243 237 234 231 229 224 213 206 200 189 183 168 153 145 149 172 196 184 166 135 118 91 56 55 63 76 83 82 81 84 89 89
248 239 236 237 236 236 237 242 243 248 250 247 243 242 241 240 236 229 225 224 220 219 214 206 202 209 220 228 226 219 209 193 171 88 52 60 69 76 79 84 88 89 91
245 240 235 236 237 239 243 246 248 248 250 249 247 247 248 248 246 241 237 237 238 239 237 236 236 237 236 234 233 234 233 235 233 241 247 91 80 67 71 85 97 94 105
243 241 235 236 237 240 244 247 253 253 250 252 252 252 252 252 250 249 246 246 246 249 250 248 246 244 243 241 239 240 242 243 247 255 262 259 258 275 311 359 126 116 135
243 238 236 237 237 239 243 246 253 255 252 252 253 254 255 253 255 255 254 254 252 253 254 253 250 246 245 243 241 242 243 244 248 257 260 263 261 261 267 271 252 240 220
243 241 242 240 238 241 242 244 249 254 253 252 253 254 254 255 259 259 259 257 255 254 256 255 252 249 246 244 243 245 247 247 249 251 253 260 262 262 264 265 263 257 252
244 242 243 240 238 240 239 242 247 252 252 253 254 254 254 257 261 261 258 255 254 255 257 258 256 251 248 246 247 247 250 250 246 252 257 259 261 263 263 261 261 258 257
245 241 240 239 236 237 237 242 246 250 250 253 257 254 255 258 260 259 257 254 254 256 258 258 257 254 253 252 251 250 251 251 250 256 262 261 258 260 262 262 262 260 261
248 246 241 238 236 238 239 242 245 246 247 252 256 256 262 261 260 255 255 253 255 257 256 255 256 255 255 255 251 252 253 254 251 255 259 260 258 258 259 261 261 260 261
245 243 239 237 237 238 238 240 243 245 249 254 257 262 264 263 260 257 256 254 258 258 256 259 258 256 258 258 253 252 253 256 257 257 256 259 261 260 259 259 260 259 260
245 243 243 243 244 238 237 239 241 245 251 256 256 261 266 266 263 260 259 258 261 262 259 263 262 261 263 257 254 254 256 255 258 256 256 262 264 260 260 261 261 260 259
246 243 244 246 243 237 235 236 241 245 251 251 253 260 262 268 263 260 258 265 263 263 260 265 266 260 264 264 258 255 256 258 258 260 260 262 262 262 262 265 262 261 260
247 245 245 246 240 237 236 235 243 243 247 252 257 259 261 265 264 263 266 269 268 266 268 271 274 272 271 271 269 265 260 261 264 264 267 265 262 262 264 267 266 262 261
247 245 242 240 235 235 238 235 238 241 244 250 255 253 256 262 262 259 262 270 269 267 267 272 280 280 278 278 279 271 264 268 269 270 273 271 268 266 265 267 267 265 263
244 242 234 231 232 235 237 237 238 241 242 245 245 244 244 250 254 256 256 267 265 262 263 270 278 281 277 280 286 285 279 278 278 277 275 275 275 272 269 269 269 267 265
241 236 228 227 228 231 233 234 237 236 236 235 230 230 228 232 242 250 258 267 265 268 271 274 279 284 286 291 292 292 290 289 287 287 285 284 282 279 276 274 274 270 267
234 227 226 226 228 229 231 233 231 230 231 229 222 214 213 214 227 247 261 281 284 279 279 284 297 309 315 307 303 301 298 297 294 293 291 290 288 286 282 279 277 276 273
232 225 228 229 227 226 226 225 223 225 226 217 211 204 200 203 211 213 234 312 6 14 1 330 329 329 330 322 315 311 306 302 302 299 296 294 292 290 289 287 283 280 279
229 223 223 221 220 221 221 218 217 222 220 206 198 194 193 191 192 183 173 105 52 35 17 340 330 334 333 330 327 323 317 311 307 306 304 300 296 293 292 291 287 285 281
220 219 216 213 216 218 213 211 213 212 202 193 191 186 182 179 174 171 171 149 58 14 8 356 344 338 336 335 332 328 324 321 318 314 308 304 300 297 295 294 290 287 285
216 211 206 207 210 206 202 201 198 196 187 184 181 178 173 169 170 176 181 177 342 346 345 342 337 334 333 330 328 327 325 324 321 317 313 309 306 304 300 297 294 291 288
214 210 208 208 207 205 201 194 187 183 181 180 179 178 174 174 180 188 200 248 295 319 328 331 332 332 331 328 326 326 325 324 321 318 315 313 311 308 304 301 298 295 292
Height
5889 5889 5890 5890 5891 5892 5892 5892 5892 5892 5892 5892 5892 5892 5892 5892 5892 5892 5892 5892 5892 5893 5893 5893 5893 5893 5894 5894 5894 5894 5894 5894 5894 5894 5894 5894 5894 5894 5895 5895 5895 5896 5896
5888 5888 5889 5890 5891 5891 5892 5892 5892 5892 5892 5892 5892 5892 5893 5893 5893 5893 5893 5893 5893 5893 5894 5894 5894 5894 5894 5895 5895 5895 5895 5895 5895 5895 5895 5895 5895 5895 5896 5896 5896 5897 5897
5886 5887 5888 5888 5890 5891 5891 5892 5892 5892 5892 5892 5892 5893 5893 5893 5893 5893 5893 5894 5894 5894 5894 5894 5895 5895 5895 5895 5896 5896 5896 5896 5896 5896 5896 5896 5896 5897 5897 5897 5898 5898 5899
5884 5885 5886 5887 5889 5890 5890 5891 5891 5892 5892 5892 5893 5893 5893 5893 5893 5893 5893 5894 5894 5894 5895 5895 5895 5895 5896 5896 5896 5896 5897 5897 5897 5897 5897 5897 5897 5898 5898 5899 5899 5900 5900
5882 5884 5885 5886 5887 5888 5889 5890 5891 5891 5892 5892 5892 5892 5893 5893 5893 5893 5893 5894 5894 5895 5895 5895 5895 5896 5896 5896 5896 5897 5897 5897 5898 5898 5897 5898 5898 5899 5899 5900 5900 5901 5901
5880 5881 5883 5884 5886 5887 5888 5889 5890 5890 5891 5891 5892 5892 5892 5892 5893 5893 5893 5894 5894 5895 5895 5895 5895 5896 5896 5896 5896 5897 5897 5898 5898 5898 5899 5899 5899 5899 5900 5900 5901 5902 5902
5878 5879 5881 5882 5884 5885 5887 5888 5889 5889 5890 5890 5891 5891 5891 5892 5892 5893 5893 5893 5894 5894 5894 5895 5895 5895 5895 5896 5896 5896 5897 5898 5898 5899 5899 5899 5900 5900 5901 5901 5902 5902 5903
5875 5877 5879 5880 5882 5883 5885 5886 5887 5888 5889 5889 5890 5890 5890 5891 5891 5892 5892 5892 5893 5893 5894 5894 5895 5895 5895 5895 5896 5896 5897 5897 5898 5899 5899 5900 5900 5901 5901 5902 5902 5903 5904
5872 5874 5876 5878 5880 5881 5883 5884 5885 5886 5887 5888 5888 5889 5889 5890 5890 5891 5891 5891 5892 5892 5893 5893 5893 5894 5894 5894 5895 5895 5896 5896 5897 5898 5898 5899 5900 5901 5901 5902 5903 5903 5904
5870 5872 5874 5875 5877 5879 5881 5882 5883 5884 5885 5886 5887 5887 5888 5888 5889 5889 5890 5890 5890 5891 5891 5891 5892 5892 5893 5893 5894 5894 5895 5896 5897 5897 5897 5899 5900 5900 5901 5901 5902 5903 5904
5867 5869 5871 5871 5873 5876 5878 5879 5881 5882 5883 5884 5885 5885 5886 5886 5887 5887 5888 5888 5889 5889 5889 5890 5890 5891 5891 5892 5893 5893 5894 5895 5895 5895 5896 5898 5899 5900 5900 5901 5902 5903 5904
5863 5866 5868 5869 5871 5873 5875 5877 5878 5880 5881 5882 5882 5883 5884 5884 5884 5885 5885 5886 5887 5887 5888 5888 5889 5889 5890 5891 5891 5892 5893 5894 5894 5893 5895 5897 5898 5899 5900 5900 5901 5902 5903
5861 5863 5865 5866 5868 5870 5872 5874 5876 5877 5878 5880 5880 5881 5881 5882 5882 5882 5883 5884 5885 5885 5886 5886 5887 5887 5888 5889 5889 5890 5891 5890 5892 5893 5894 5895 5896 5897 5898 5899 5900 5901 5902
5858 5860 5861 5863 5865 5867 5869 5871 5873 5875 5876 5878 5878 5879 5880 5880 5880 5881 5881 5882 5883 5883 5884 5884 5885 5885 5886 5887 5888 5889 5889 5888 5890 5892 5892 5892 5894 5895 5896 5897 5898 5899 5900
5854 5856 5858 5860 5862 5864 5865 5868 5870 5873 5874 5876 5877 5877 5878 5878 5879 5879 5879 5880 5881 5881 5882 5882 5883 5884 5884 5885 5886 5886 5887 5888 5889 5889 5890 5891 5892 5893 5894 5895 5896 5897 5898
5851 5853 5855 5857 5859 5861 5862 5864 5868 5870 5872 5873 5874 5875 5876 5876 5877 5877 5878 5878 5879 5880 5880 5881 5881 5882 5882 5883 5884 5885 5885 5886 5887 5887 5888 5889 5890 5891 5891 5892 5893 5894 5895
5848 5850 5852 5854 5856 5858 5860 5863 5866 5868 5870 5871 5872 5873 5874 5875 5875 5876 5877 5877 5878 5878 5879 5879 5880 5880 5881 5882 5882 5883 5884 5884 5885 5885 5886 5886 5887 5888 5889 5890 5890 5891 5892
5845 5847 5849 5851 5854 5856 5858 5861 5864 5866 5867 5869 5870 5871 5872 5873 5874 5875 5875 5876 5876 5877 5877 5878 5878 5879 5879 5880 5880 5881 5882 5882 5883 5883 5884 5884 5884 5885 5886 5886 5887 5888 5889
5842 5843 5846 5849 5851 5854 5857 5859 5862 5864 5866 5867 5869 5870 5871 5872 5873 5873 5874 5875 5875 5876 5876 5877 5877 5877 5878 5878 5879 5879 5880 5880 5881 5881 5881 5882 5882 5882 5883 5883 5884 5884 5885
5839 5840 5843 5846 5849 5852 5855 5857 5860 5862 5864 5865 5867 5868 5869 5871 5872 5873 5873 5874 5874 5875 5875 5875 5876 5876 5877 5877 5877 5878 5878 5879 5879 5879 5879 5879 5879 5879 5880 5880 5880 5881 5881
5837 5838 5840 5844 5847 5850 5852 5855 5858 5860 5862 5864 5866 5867 5868 5870 5871 5872 5873 5873 5873 5874 5874 5875 5875 5875 5875 5876 5876 5876 5876 5876 5876 5876 5876 5876 5877 5877 5877 5877 5877 5877 5877
5835 5837 5840 5842 5845 5848 5850 5853 5856 5858 5861 5863 5864 5866 5867 5869 5870 5871 5872 5873 5873 5873 5873 5874 5874 5874 5874 5874 5874 5874 5875 5875 5874 5874 5874 5873 5874 5873 5873 5873 5873 5873 5873
5835 5837 5839 5841 5844 5846 5849 5852 5854 5857 5859 5862 5863 5865 5866 5868 5869 5871 5872 5872 5873 5873 5873 5873 5874 5874 5873 5873 5873 5873 5873 5873 5872 5872 5871 5871 5871 5870 5870 5869 5869 5869 5869
5835 5837 5839 5841 5843 5845 5848 5850 5853 5856 5858 5860 5862 5864 5866 5867 5869 5870 5871 5872 5872 5873 5873 5873 5873 5873 5873 5872 5872 5872 5871 5870 5870 5869 5869 5868 5867 5867 5866 5866 5865 5865 5864
5835 5837 5839 5841 5843 5845 5847 5850 5852 5855 5858 5860 5862 5864 5865 5867 5868 5870 5871 5871 5872 5872 5872 5872 5872 5872 5872 5871 5871 5870 5869 5868 5867 5867 5866 5865 5864 5863 5863 5862 5861 5861 5860
5835 5837 5839 5841 5843 5845 5847 5849 5852 5854 5857 5859 5861 5863 5865 5867 5868 5869 5870 5871 5871 5871 5871 5871 5871 5871 5870 5870 5869 5868 5867 5866 5865 5864 5863 5862 5861 5860 5859 5858 5857 5856 5855